Cozumel Airport, Mexico

3:47 PM EST on February 10, 2016 (GMT -0500)
Cozumel International

Weather History for MMCZ - December, 2011

Change the Weather History Date:

Sunday, December 18, 2011

  Actual Average Record
Temperature  
Mean Temperature 70 °F -  
Max Temperature 77 °F 81 °F 86 °F (2005)
Min Temperature 62 °F 70 °F 59 °F (2010)
Cooling Degree Days 4    
Growing Degree Days 20 (Base 50)    
Moisture  
Dew Point 65 °F    
Average Humidity 84    
Maximum Humidity 100    
Minimum Humidity 69    
Precipitation  
Precipitation 0.00 in - - ()
Sea Level Pressure  
Sea Level Pressure 30.12 in    
Wind  
Wind Speed 7 mph ()    
Max Wind Speed 17 mph    
Max Gust Speed -    
Visibility 7.0 miles    
Events      
Averages and records for this station are not official NWS values.
T = Trace of Precipitation, MM = Missing Value Source: Averaged Metar Reports

Daily Weather History Graph

Daily Weather History Graph

Search for Another Location

Airport or City:

Trip Planner

Search our weather history database for the weather conditions in past years. The results will help you decide how hot, cold, wet, or windy it might be!

Date:

Astronomy

Dec. 18, 2011 Rise Set
Actual Time 6:17 AM CST 5:11 PM CST
Civil Twilight 5:53 AM CST 5:35 PM CST
Nautical Twilight 5:25 AM CST 6:02 PM CST
Astronomical Twilight 4:58 AM CST 6:29 PM CST
Moon No Moon Rise 12:02 PM CST (12/18)
Length of Visible Light 11h 41m
Length of Day
10h 53m
Last Quarter, 42% of the Moon is Illuminated
Dec 18
Last Quarter
Dec 24
New
Jan 1
First Quarter
Jan 9
Full
Jan 16
Last Quarter

Hourly Weather History & Observations

Time (CST) Temp. Dew Point Humidity Pressure Visibility Wind Dir Wind Speed Gust Speed Precip Events Conditions
12:45 AM 68.0 °F 68.0 °F 100% 30.13 in 7.0 mi North 5.8 mph - N/A   Overcast
1:51 AM 68.0 °F 68.0 °F 100% 30.11 in 7.0 mi North 9.2 mph - N/A   Mostly Cloudy
2:42 AM 69.8 °F 68.0 °F 94% 30.13 in 7.0 mi North 9.2 mph - N/A   Mostly Cloudy
3:47 AM 68.0 °F 68.0 °F 100% 30.10 in 6.0 mi North 6.9 mph - N/A   Mostly Cloudy
4:42 AM 69.8 °F 68.0 °F 94% 30.11 in 6.0 mi NNE 4.6 mph - N/A   Mostly Cloudy
5:52 AM 69.8 °F 64.4 °F 83% 30.12 in 7.0 mi NE 6.9 mph - N/A   Mostly Cloudy
6:40 AM 68.0 °F 64.4 °F 88% 30.13 in 7.0 mi NE 5.8 mph - N/A   Mostly Cloudy
7:40 AM 69.8 °F 64.4 °F 83% 30.15 in 7.0 mi NE 4.6 mph - N/A   Mostly Cloudy
8:40 AM 73.4 °F 64.4 °F 73% 30.19 in 7.0 mi NE 9.2 mph - N/A   Mostly Cloudy
9:40 AM 75.2 °F 64.4 °F 69% 30.17 in 7.0 mi ENE 9.2 mph - N/A   Mostly Cloudy
10:40 AM 75.2 °F 64.4 °F 69% 30.16 in 7.0 mi NE 13.8 mph - N/A   Mostly Cloudy
11:40 AM 77.0 °F 66.2 °F 69% 30.12 in 7.0 mi ENE 17.3 mph - N/A   Mostly Cloudy
12:40 PM 73.4 °F 66.2 °F 78% 30.11 in 7.0 mi ENE 16.1 mph - N/A   Mostly Cloudy
1:40 PM 77.0 °F 66.2 °F 69% 30.09 in 7.0 mi East 15.0 mph - N/A   Mostly Cloudy
2:40 PM 75.2 °F 66.2 °F 73% 30.11 in 8.0 mi ENE 15.0 mph - N/A   Mostly Cloudy
3:40 PM 73.4 °F 64.4 °F 73% 30.07 in 8.0 mi ENE 9.2 mph - N/A   Overcast
4:49 PM 71.6 °F 64.4 °F 78% 30.08 in 8.0 mi ENE 5.8 mph - N/A   Mostly Cloudy
5:41 PM 69.8 °F 62.6 °F 78% 30.07 in 7.0 mi East 4.6 mph - N/A   Mostly Cloudy
6:42 PM 68.0 °F 62.6 °F 83% 30.10 in 7.0 mi East 3.5 mph - N/A   Scattered Clouds
7:42 PM 66.2 °F 62.6 °F 88% 30.12 in 7.0 mi East 4.6 mph - N/A   Partly Cloudy
8:41 PM 66.2 °F 62.6 °F 88% 30.15 in 7.0 mi ENE 3.5 mph - N/A   Partly Cloudy
9:40 PM 62.6 °F 62.6 °F 100% 30.13 in 7.0 mi East 3.5 mph - N/A   Partly Cloudy
10:43 PM 62.6 °F 60.8 °F 94% 30.12 in 7.0 mi Calm Calm - N/A   Partly Cloudy
11:45 PM 62.6 °F 60.8 °F 94% 30.08 in 7.0 mi Calm Calm - N/A   Clear